Location: Nied?wied?
(53.3665°N, 14.8184°E)
Time: 21:58:46
(UTC+00:00)

Cosmos 1703 Rocket - Pass Details

Date: 03 March 2021
Orbit: 604 x 634 km, 82.5° (Epoch: 12 April)

Event Time Altitude Azimuth Distance (km) Brightness Sun altitude
Rises 18:46:05 0° 345° (NNW) 2,919 7.4 -19.0°
Reaches altitude 10° 18:48:23 10° 340° (NNW) 2,002 6.6 -19.4°
Maximum altitude 18:52:38 49° 266° (W) 807 4.5 -20.0°
Drops below altitude 10° 18:56:50 10° 192° (SSW) 1,968 6.1 -20.6°
Sets 18:59:05 0° 187° (S) 2,864 6.9 -20.9°
